Year,Month,Day,Hour,Minute,Value (Times are PST for temperature in C)
2012,02,22,00,00,8.70
2012,02,22,00,01,8.70
2012,02,22,00,02,8.70
2012,02,22,00,03,8.70
2012,02,22,00,04,8.70
2012,02,22,00,05,8.70
2012,02,22,00,06,8.70
2012,02,22,00,07,8.70
2012,02,22,00,08,8.70
2012,02,22,00,09,8.70
2012,02,22,00,10,8.70
2012,02,22,00,11,8.70
2012,02,22,00,12,8.70
2012,02,22,00,13,8.70
2012,02,22,00,14,8.60
2012,02,22,00,15,8.60
2012,02,22,00,16,8.60
2012,02,22,00,17,8.60
2012,02,22,00,18,8.50
2012,02,22,00,19,8.50
2012,02,22,00,20,8.50
2012,02,22,00,21,8.50
2012,02,22,00,22,8.40
2012,02,22,00,23,8.40
2012,02,22,00,24,8.40
2012,02,22,00,25,8.40
2012,02,22,00,26,8.40
2012,02,22,00,27,8.40
2012,02,22,00,28,8.40
2012,02,22,00,29,8.40
2012,02,22,00,30,8.40
2012,02,22,00,31,8.40
2012,02,22,00,32,8.40
2012,02,22,00,33,8.40
2012,02,22,00,34,8.40
2012,02,22,00,35,8.40
2012,02,22,00,36,8.50
2012,02,22,00,37,8.50
2012,02,22,00,38,8.50
2012,02,22,00,39,8.40
2012,02,22,00,40,8.40
2012,02,22,00,41,8.40
2012,02,22,00,42,8.40
2012,02,22,00,43,8.40
2012,02,22,00,44,8.40
2012,02,22,00,45,8.40
2012,02,22,00,46,8.40
2012,02,22,00,47,8.40
2012,02,22,00,48,8.50
2012,02,22,00,49,8.50
2012,02,22,00,50,8.50
2012,02,22,00,51,8.50
2012,02,22,00,52,8.50
2012,02,22,00,53,8.50
2012,02,22,00,54,8.50
2012,02,22,00,55,8.50
2012,02,22,00,56,8.50
2012,02,22,00,57,8.50
2012,02,22,00,58,8.50
2012,02,22,00,59,8.60
2012,02,22,01,00,8.60
2012,02,22,01,01,8.60
2012,02,22,01,02,8.70
2012,02,22,01,03,8.70
2012,02,22,01,04,8.70
2012,02,22,01,05,8.70
2012,02,22,01,06,8.70
2012,02,22,01,07,8.70
2012,02,22,01,08,8.70
2012,02,22,01,09,8.70
2012,02,22,01,10,8.70
2012,02,22,01,11,8.70
2012,02,22,01,12,8.70
2012,02,22,01,13,8.70
2012,02,22,01,14,8.70
2012,02,22,01,15,8.70
2012,02,22,01,16,8.70
2012,02,22,01,17,8.70
2012,02,22,01,18,8.70
2012,02,22,01,19,8.70
2012,02,22,01,20,8.70
2012,02,22,01,21,8.80
2012,02,22,01,22,8.80
2012,02,22,01,23,8.80
2012,02,22,01,24,8.80
2012,02,22,01,25,8.80
2012,02,22,01,26,8.80
2012,02,22,01,27,8.80
2012,02,22,01,28,8.80
2012,02,22,01,29,8.90
2012,02,22,01,30,8.90
2012,02,22,01,31,8.90
2012,02,22,01,32,8.90
2012,02,22,01,33,8.90
2012,02,22,01,34,8.90
2012,02,22,01,35,8.90
2012,02,22,01,36,8.90
2012,02,22,01,37,8.90
2012,02,22,01,38,8.90
2012,02,22,01,39,9.00
2012,02,22,01,40,9.00
2012,02,22,01,41,9.00
2012,02,22,01,42,9.00
2012,02,22,01,43,9.10
2012,02,22,01,44,9.10
2012,02,22,01,45,9.10
2012,02,22,01,46,9.10
2012,02,22,01,47,9.10
2012,02,22,01,48,9.10
2012,02,22,01,49,9.10
2012,02,22,01,50,9.00
2012,02,22,01,51,9.00
2012,02,22,01,52,9.00
2012,02,22,01,53,9.00
2012,02,22,01,54,9.00
2012,02,22,01,55,9.00
2012,02,22,01,56,9.10
2012,02,22,01,57,9.10
2012,02,22,01,58,9.10
2012,02,22,01,59,9.10
2012,02,22,02,00,9.10
2012,02,22,02,01,9.00
2012,02,22,02,02,9.00
2012,02,22,02,03,9.00
2012,02,22,02,04,9.00
2012,02,22,02,05,9.00
2012,02,22,02,06,9.00
2012,02,22,02,07,9.00
2012,02,22,02,08,9.00
2012,02,22,02,09,9.00
2012,02,22,02,10,9.00
2012,02,22,02,11,9.00
2012,02,22,02,12,9.00
2012,02,22,02,13,9.00
2012,02,22,02,14,9.00
2012,02,22,02,15,9.00
2012,02,22,02,16,9.00
2012,02,22,02,17,9.00
2012,02,22,02,18,9.00
2012,02,22,02,19,9.00
2012,02,22,02,20,9.00
2012,02,22,02,21,9.00
2012,02,22,02,22,9.00
2012,02,22,02,23,9.00
2012,02,22,02,24,9.00
2012,02,22,02,25,9.00
2012,02,22,02,26,9.00
2012,02,22,02,27,8.90
2012,02,22,02,28,8.90
2012,02,22,02,29,8.90
2012,02,22,02,30,8.90
2012,02,22,02,31,9.00
2012,02,22,02,32,9.00
2012,02,22,02,33,9.00
2012,02,22,02,34,8.90
2012,02,22,02,35,8.90
2012,02,22,02,36,8.90
2012,02,22,02,37,8.90
2012,02,22,02,38,8.90
2012,02,22,02,39,8.90
2012,02,22,02,40,8.90
2012,02,22,02,41,9.00
2012,02,22,02,42,9.00
2012,02,22,02,43,9.00
2012,02,22,02,44,9.00
2012,02,22,02,45,9.00
2012,02,22,02,46,9.00
2012,02,22,02,47,9.00
2012,02,22,02,48,9.10
2012,02,22,02,49,9.10
2012,02,22,02,50,9.10
2012,02,22,02,51,9.10
2012,02,22,02,52,9.10
2012,02,22,02,53,9.10
2012,02,22,02,54,9.10
2012,02,22,02,55,9.10
2012,02,22,02,56,9.10
2012,02,22,02,57,9.10
2012,02,22,02,58,9.10
2012,02,22,02,59,9.10
2012,02,22,03,00,9.10
2012,02,22,03,01,9.10
2012,02,22,03,02,9.00
2012,02,22,03,03,9.00
2012,02,22,03,04,9.00
2012,02,22,03,05,9.00
2012,02,22,03,06,9.00
2012,02,22,03,07,9.00
2012,02,22,03,08,9.00
2012,02,22,03,09,8.90
2012,02,22,03,10,8.90
2012,02,22,03,11,8.90
2012,02,22,03,12,8.90
2012,02,22,03,13,8.90
2012,02,22,03,14,8.90
2012,02,22,03,15,8.80
2012,02,22,03,16,8.80
2012,02,22,03,17,8.80
2012,02,22,03,18,8.80
2012,02,22,03,19,8.80
2012,02,22,03,20,8.80
2012,02,22,03,21,8.80
2012,02,22,03,22,8.80
2012,02,22,03,23,8.80
2012,02,22,03,24,8.80
2012,02,22,03,25,8.80
2012,02,22,03,26,8.80
2012,02,22,03,27,8.80
2012,02,22,03,28,8.80
2012,02,22,03,29,8.80
2012,02,22,03,30,8.80
2012,02,22,03,31,8.80
2012,02,22,03,32,8.70
2012,02,22,03,33,8.70
2012,02,22,03,34,8.70
2012,02,22,03,35,8.70
2012,02,22,03,36,8.70
2012,02,22,03,37,8.70
2012,02,22,03,38,8.70
2012,02,22,03,39,8.70
2012,02,22,03,40,8.70
2012,02,22,03,41,8.70
2012,02,22,03,42,8.60
2012,02,22,03,43,8.60
2012,02,22,03,44,8.60
2012,02,22,03,45,8.60
2012,02,22,03,46,8.60
2012,02,22,03,47,8.60
2012,02,22,03,48,8.60
2012,02,22,03,49,8.50
2012,02,22,03,50,8.50
2012,02,22,03,51,8.50
2012,02,22,03,52,8.50
2012,02,22,03,53,8.60
2012,02,22,03,54,8.60
2012,02,22,03,55,8.60
2012,02,22,03,56,8.50
2012,02,22,03,57,8.50
2012,02,22,03,58,8.50
2012,02,22,03,59,8.50
2012,02,22,04,00,8.40
2012,02,22,04,01,8.40
2012,02,22,04,02,8.40
2012,02,22,04,03,8.40
2012,02,22,04,04,8.40
2012,02,22,04,05,8.30
2012,02,22,04,06,8.30
2012,02,22,04,07,8.30
2012,02,22,04,08,8.30
2012,02,22,04,09,8.30
2012,02,22,04,10,8.20
2012,02,22,04,11,8.20
2012,02,22,04,12,8.20
2012,02,22,04,13,8.20
2012,02,22,04,14,8.20
2012,02,22,04,15,8.20
2012,02,22,04,16,8.20
2012,02,22,04,17,8.20
2012,02,22,04,18,8.20
2012,02,22,04,19,8.10
2012,02,22,04,20,8.10
2012,02,22,04,21,8.10
2012,02,22,04,22,8.10
2012,02,22,04,23,8.10
2012,02,22,04,24,8.10
2012,02,22,04,25,8.10
2012,02,22,04,26,8.10
2012,02,22,04,27,8.10
2012,02,22,04,28,8.10
2012,02,22,04,29,8.10
2012,02,22,04,30,8.00
2012,02,22,04,31,8.00
2012,02,22,04,32,8.00
2012,02,22,04,33,8.00
2012,02,22,04,34,8.00
2012,02,22,04,35,8.00
2012,02,22,04,36,8.00
2012,02,22,04,37,7.90
2012,02,22,04,38,7.90
2012,02,22,04,39,7.90
2012,02,22,04,40,7.90
2012,02,22,04,41,7.90
2012,02,22,04,42,7.90
2012,02,22,04,43,7.90
2012,02,22,04,44,7.90
2012,02,22,04,45,7.80
2012,02,22,04,46,7.80
2012,02,22,04,47,7.80
2012,02,22,04,48,7.80
2012,02,22,04,49,7.80
2012,02,22,04,50,7.80
2012,02,22,04,51,7.80
2012,02,22,04,52,7.80
2012,02,22,04,53,7.80
2012,02,22,04,54,7.80
2012,02,22,04,55,7.80
2012,02,22,04,56,7.80
2012,02,22,04,57,7.80
2012,02,22,04,58,7.80
2012,02,22,04,59,7.80
2012,02,22,05,00,7.80
2012,02,22,05,01,7.70
2012,02,22,05,02,7.70
2012,02,22,05,03,7.70
2012,02,22,05,04,7.70
2012,02,22,05,05,7.60
2012,02,22,05,06,7.60
2012,02,22,05,07,7.60
2012,02,22,05,08,7.60
2012,02,22,05,09,7.60
2012,02,22,05,10,7.50
2012,02,22,05,11,7.50
2012,02,22,05,12,7.50
2012,02,22,05,13,7.50
2012,02,22,05,14,7.40
2012,02,22,05,15,7.40
2012,02,22,05,16,7.30
2012,02,22,05,17,7.30
2012,02,22,05,18,7.30
2012,02,22,05,19,7.30
2012,02,22,05,20,7.20
2012,02,22,05,21,7.20
2012,02,22,05,22,7.10
2012,02,22,05,23,7.10
2012,02,22,05,24,7.10
2012,02,22,05,25,7.00
2012,02,22,05,26,7.00
2012,02,22,05,27,7.00
2012,02,22,05,28,6.90
2012,02,22,05,29,6.90
2012,02,22,05,30,6.90
2012,02,22,05,31,6.80
2012,02,22,05,32,6.80
2012,02,22,05,33,6.80
2012,02,22,05,34,6.80
2012,02,22,05,35,6.80
2012,02,22,05,36,6.80
2012,02,22,05,37,6.80
2012,02,22,05,38,6.80
2012,02,22,05,39,6.80
2012,02,22,05,40,6.70
2012,02,22,05,41,6.70
2012,02,22,05,42,6.70
2012,02,22,05,43,6.70
2012,02,22,05,44,6.80
2012,02,22,05,45,6.80
2012,02,22,05,46,6.80
2012,02,22,05,47,6.80
2012,02,22,05,48,6.80
2012,02,22,05,49,6.80
2012,02,22,05,50,6.80
2012,02,22,05,51,6.80
2012,02,22,05,52,6.80
2012,02,22,05,53,6.80
2012,02,22,05,54,6.80
2012,02,22,05,55,6.80
2012,02,22,05,56,6.80
2012,02,22,05,57,6.80
2012,02,22,05,58,6.80
2012,02,22,05,59,6.80
2012,02,22,06,00,6.80
2012,02,22,06,01,6.80
2012,02,22,06,02,6.80
2012,02,22,06,03,6.80
2012,02,22,06,04,6.80
2012,02,22,06,05,6.80
2012,02,22,06,06,6.80
2012,02,22,06,07,6.80
2012,02,22,06,08,6.90
2012,02,22,06,09,6.90
2012,02,22,06,10,6.90
2012,02,22,06,11,6.90
2012,02,22,06,12,6.90
2012,02,22,06,13,6.90
2012,02,22,06,14,6.90
2012,02,22,06,15,6.90
2012,02,22,06,16,6.80
2012,02,22,06,17,6.80
2012,02,22,06,18,6.80
2012,02,22,06,19,6.90
2012,02,22,06,20,6.90
2012,02,22,06,21,6.80
2012,02,22,06,22,6.80
2012,02,22,06,23,6.90
2012,02,22,06,24,6.90
2012,02,22,06,25,6.90
2012,02,22,06,26,6.90
2012,02,22,06,27,6.90
2012,02,22,06,28,6.90
2012,02,22,06,29,6.90
2012,02,22,06,30,6.90
2012,02,22,06,31,6.90
2012,02,22,06,32,7.00
2012,02,22,06,33,7.00
2012,02,22,06,34,7.10
2012,02,22,06,35,7.10
2012,02,22,06,36,7.10
2012,02,22,06,37,7.10
2012,02,22,06,38,7.10
2012,02,22,06,39,7.10
2012,02,22,06,40,7.10
2012,02,22,06,41,7.10
2012,02,22,06,42,7.00
2012,02,22,06,43,7.00
2012,02,22,06,44,7.00
2012,02,22,06,45,7.00
2012,02,22,06,46,6.90
2012,02,22,06,47,6.90
2012,02,22,06,48,6.80
2012,02,22,06,49,6.80
2012,02,22,06,50,6.80
2012,02,22,06,51,6.80
2012,02,22,06,52,6.80
2012,02,22,06,53,6.80
2012,02,22,06,54,6.80
2012,02,22,06,55,6.80
2012,02,22,06,56,6.80
2012,02,22,06,57,6.80
2012,02,22,06,58,6.80
2012,02,22,06,59,6.80
2012,02,22,07,00,6.80
2012,02,22,07,01,6.80
2012,02,22,07,02,6.90
2012,02,22,07,03,6.90
2012,02,22,07,04,6.90
2012,02,22,07,05,6.90
2012,02,22,07,06,7.00
2012,02,22,07,07,7.00
2012,02,22,07,08,7.00
2012,02,22,07,09,6.90
2012,02,22,07,10,6.90
2012,02,22,07,11,6.80
2012,02,22,07,12,6.80
2012,02,22,07,13,6.80
2012,02,22,07,14,6.80
2012,02,22,07,15,6.70
2012,02,22,07,16,6.60
2012,02,22,07,17,6.60
2012,02,22,07,18,6.60
2012,02,22,07,19,6.60
2012,02,22,07,20,6.60
2012,02,22,07,21,6.60
2012,02,22,07,22,6.60
2012,02,22,07,23,6.60
2012,02,22,07,24,6.60
2012,02,22,07,25,6.60
2012,02,22,07,26,6.60
2012,02,22,07,27,6.60
2012,02,22,07,28,6.60
2012,02,22,07,29,6.60
2012,02,22,09,45,7.40
2012,02,22,09,46,7.50
2012,02,22,09,47,7.50
2012,02,22,09,48,7.50
2012,02,22,09,49,7.60
2012,02,22,09,50,7.60
2012,02,22,09,51,7.60
2012,02,22,09,52,7.60
2012,02,22,09,53,7.70
2012,02,22,09,54,7.70
2012,02,22,09,55,7.70
2012,02,22,09,56,7.70
2012,02,22,09,57,7.70
2012,02,22,09,58,7.70
2012,02,22,09,59,7.70
2012,02,22,10,00,7.70
2012,02,22,10,01,7.70
2012,02,22,10,02,7.70
2012,02,22,10,03,7.60
2012,02,22,10,04,7.60
2012,02,22,10,05,7.60
2012,02,22,10,06,7.60
2012,02,22,10,07,7.70
2012,02,22,10,08,7.60
2012,02,22,10,09,7.50
2012,02,22,10,10,7.50
2012,02,22,10,11,7.50
2012,02,22,10,12,7.50
2012,02,22,10,13,7.50
2012,02,22,10,14,7.50
2012,02,22,10,15,7.40
2012,02,22,10,16,7.50
2012,02,22,10,17,7.40
2012,02,22,10,18,7.40
2012,02,22,10,19,7.40
2012,02,22,10,20,7.40
2012,02,22,10,21,7.50
2012,02,22,10,22,7.50
2012,02,22,10,23,7.50
2012,02,22,10,24,7.60
2012,02,22,10,25,7.70
2012,02,22,10,26,7.70
2012,02,22,10,27,7.70
2012,02,22,10,28,7.80
2012,02,22,10,29,7.80
2012,02,22,10,30,7.80
2012,02,22,10,31,7.80
2012,02,22,10,32,7.80
2012,02,22,10,33,7.80
2012,02,22,10,34,7.80
2012,02,22,10,35,7.80
2012,02,22,10,36,7.80
2012,02,22,10,37,7.80
2012,02,22,10,38,7.80
2012,02,22,10,39,7.80
2012,02,22,10,40,7.80
2012,02,22,10,41,7.80
2012,02,22,10,42,7.80
2012,02,22,10,43,7.80
2012,02,22,10,44,7.80
2012,02,22,10,45,7.80
2012,02,22,10,46,7.80
2012,02,22,10,47,7.80
2012,02,22,10,48,7.80
2012,02,22,10,49,7.70
2012,02,22,10,50,7.70
2012,02,22,10,51,7.70
2012,02,22,10,52,7.60
2012,02,22,10,53,7.60
2012,02,22,10,54,7.60
2012,02,22,10,55,7.70
2012,02,22,10,56,7.60
2012,02,22,10,57,7.60
2012,02,22,10,58,7.60
2012,02,22,10,59,7.60
2012,02,22,11,00,7.60
2012,02,22,11,01,7.50
2012,02,22,11,02,7.50
2012,02,22,11,03,7.60
2012,02,22,11,04,7.70
2012,02,22,11,05,7.80
2012,02,22,11,06,7.80
2012,02,22,11,07,7.80
2012,02,22,11,08,7.80
2012,02,22,11,09,7.90
2012,02,22,11,10,7.90
2012,02,22,11,11,7.90
2012,02,22,11,12,7.90
2012,02,22,11,13,8.00
2012,02,22,11,14,8.00
2012,02,22,11,15,8.00
2012,02,22,11,16,8.00
2012,02,22,11,17,8.10
2012,02,22,11,18,8.20
2012,02,22,11,19,8.20
2012,02,22,11,20,8.20
2012,02,22,11,21,8.20
2012,02,22,11,22,8.20
2012,02,22,11,23,8.20
2012,02,22,11,24,8.20
2012,02,22,11,25,8.20
2012,02,22,11,26,8.20
2012,02,22,11,27,8.20
2012,02,22,11,28,8.20
2012,02,22,11,29,8.20
2012,02,22,11,30,8.30
2012,02,22,11,31,8.30
2012,02,22,11,32,8.30
2012,02,22,11,33,8.20
2012,02,22,11,34,8.20
2012,02,22,11,35,8.20
2012,02,22,11,36,8.20
2012,02,22,11,37,8.20
2012,02,22,11,38,8.20
2012,02,22,11,39,8.20
2012,02,22,11,40,8.20
2012,02,22,11,41,8.20
2012,02,22,11,42,8.20
2012,02,22,11,43,8.20
2012,02,22,11,44,8.20
2012,02,22,11,45,8.20
2012,02,22,11,46,8.20
2012,02,22,11,47,8.20
2012,02,22,11,48,8.30
2012,02,22,11,49,8.30
2012,02,22,11,50,8.30
2012,02,22,11,51,8.30
2012,02,22,11,52,8.30
2012,02,22,11,53,8.30
2012,02,22,11,54,8.20
2012,02,22,11,55,8.30
2012,02,22,11,56,8.30
2012,02,22,11,57,8.20
2012,02,22,11,58,8.20
2012,02,22,11,59,8.20
2012,02,22,12,00,8.20
2012,02,22,12,01,8.20
2012,02,22,12,02,8.10
2012,02,22,12,03,8.10
2012,02,22,12,04,8.10
2012,02,22,12,05,8.00
2012,02,22,12,06,8.00
2012,02,22,12,07,8.00
2012,02,22,12,08,8.00
2012,02,22,12,09,7.90
2012,02,22,12,10,8.00
2012,02,22,12,11,8.00
2012,02,22,12,12,8.00
2012,02,22,12,13,8.10
2012,02,22,12,14,8.20
2012,02,22,12,15,8.20
2012,02,22,12,16,8.20
2012,02,22,12,17,8.20
2012,02,22,12,18,8.20
2012,02,22,12,19,8.20
2012,02,22,12,20,8.30
2012,02,22,12,21,8.30
2012,02,22,12,22,8.40
2012,02,22,12,23,8.40
2012,02,22,12,24,8.50
2012,02,22,12,25,8.60
2012,02,22,12,26,8.60
2012,02,22,12,27,8.60
2012,02,22,12,28,8.60
2012,02,22,12,29,8.60
2012,02,22,12,30,8.60
2012,02,22,12,31,8.60
2012,02,22,12,32,8.70
2012,02,22,12,33,8.70
2012,02,22,12,34,8.70
2012,02,22,12,35,8.70
2012,02,22,12,36,8.70
2012,02,22,12,37,8.70
2012,02,22,12,38,8.70
2012,02,22,12,39,8.70
2012,02,22,12,40,8.60
2012,02,22,12,41,8.50
2012,02,22,12,42,8.50
2012,02,22,12,43,8.40
2012,02,22,12,44,8.40
2012,02,22,12,45,8.40
2012,02,22,12,46,8.30
2012,02,22,12,47,8.30
2012,02,22,12,48,8.20
2012,02,22,12,49,8.20
2012,02,22,12,50,8.30
2012,02,22,12,51,8.30
2012,02,22,12,52,8.30
2012,02,22,12,53,8.40
2012,02,22,12,54,8.40
2012,02,22,12,55,8.40
2012,02,22,12,56,8.50
2012,02,22,12,57,8.50
2012,02,22,12,58,8.50
2012,02,22,12,59,8.60
2012,02,22,13,00,8.70
2012,02,22,13,01,8.60
2012,02,22,13,02,8.60
2012,02,22,13,03,8.70
2012,02,22,13,04,8.70
2012,02,22,13,05,8.60
2012,02,22,13,06,8.60
2012,02,22,13,07,8.60
2012,02,22,13,08,8.70
2012,02,22,13,09,8.80
2012,02,22,13,10,8.70
2012,02,22,13,11,8.70
2012,02,22,13,12,8.70
2012,02,22,13,13,8.70
2012,02,22,13,14,8.70
2012,02,22,13,15,8.80
2012,02,22,13,16,8.80
2012,02,22,13,17,8.90
2012,02,22,13,18,8.90
2012,02,22,13,19,8.90
2012,02,22,13,20,9.00
2012,02,22,13,21,9.10
2012,02,22,13,22,9.10
2012,02,22,13,23,9.10
2012,02,22,13,24,9.10
2012,02,22,13,25,9.00
2012,02,22,13,26,9.00
2012,02,22,13,27,9.00
2012,02,22,13,28,8.90
2012,02,22,13,29,8.80
2012,02,22,13,30,8.70
2012,02,22,13,31,8.70
2012,02,22,13,32,8.70
2012,02,22,13,33,8.70
2012,02,22,13,34,8.70
2012,02,22,13,35,8.60
2012,02,22,13,36,8.60
2012,02,22,13,37,8.50
2012,02,22,13,38,8.50
2012,02,22,13,39,8.50
2012,02,22,13,40,8.50
2012,02,22,13,41,8.50
2012,02,22,13,42,8.40
2012,02,22,13,43,8.40
2012,02,22,13,44,8.40
2012,02,22,13,45,8.40
2012,02,22,13,46,8.40
2012,02,22,13,47,8.40
2012,02,22,13,48,8.40
2012,02,22,13,49,8.30
2012,02,22,13,50,8.30
2012,02,22,13,51,8.30
2012,02,22,13,52,8.30
2012,02,22,13,53,8.40
2012,02,22,13,54,8.40
2012,02,22,13,55,8.50
2012,02,22,13,56,8.50
2012,02,22,13,57,8.60
2012,02,22,13,58,8.60
2012,02,22,13,59,8.70
2012,02,22,14,00,8.70
2012,02,22,14,01,8.70
2012,02,22,14,02,8.70
2012,02,22,14,03,8.70
2012,02,22,14,04,8.70
2012,02,22,14,05,8.70
2012,02,22,14,06,8.80
2012,02,22,14,07,8.80
2012,02,22,14,08,8.80
2012,02,22,14,09,8.80
2012,02,22,14,10,8.70
2012,02,22,14,11,8.80
2012,02,22,14,12,8.80
2012,02,22,14,13,8.90
2012,02,22,14,14,9.00
2012,02,22,14,15,9.00
2012,02,22,14,16,9.00
2012,02,22,14,17,9.00
2012,02,22,14,18,9.10
2012,02,22,14,19,9.10
2012,02,22,14,20,9.10
2012,02,22,14,21,9.10
2012,02,22,14,22,9.20
2012,02,22,14,23,9.20
2012,02,22,14,24,9.20
2012,02,22,14,25,9.20
2012,02,22,14,26,9.20
2012,02,22,14,27,9.20
2012,02,22,14,28,9.10
2012,02,22,14,29,9.10
2012,02,22,14,30,9.00
2012,02,22,14,31,9.00
2012,02,22,14,32,8.90
2012,02,22,14,33,8.90
2012,02,22,14,34,8.90
2012,02,22,14,35,8.90
2012,02,22,14,36,9.00
2012,02,22,14,37,9.00
2012,02,22,14,38,9.00
2012,02,22,14,39,9.00
2012,02,22,14,40,9.00
2012,02,22,14,41,9.00
2012,02,22,14,42,8.90
2012,02,22,14,43,8.80
2012,02,22,14,44,8.80
2012,02,22,14,45,8.70
2012,02,22,14,46,8.70
2012,02,22,14,47,8.80
2012,02,22,14,48,8.70
2012,02,22,14,49,8.70
2012,02,22,14,50,8.80
2012,02,22,14,51,8.80
2012,02,22,14,52,8.80
2012,02,22,14,53,8.80
2012,02,22,14,54,8.80
2012,02,22,14,55,8.70
2012,02,22,14,56,8.70
2012,02,22,14,57,8.70
2012,02,22,14,58,8.70
2012,02,22,14,59,8.70
2012,02,22,15,00,8.70
2012,02,22,15,01,8.70
2012,02,22,15,02,8.70
2012,02,22,15,03,8.70
2012,02,22,15,04,8.80
2012,02,22,15,05,8.90
2012,02,22,15,06,8.90
2012,02,22,15,07,8.90
2012,02,22,15,08,8.90
2012,02,22,15,09,8.90
2012,02,22,15,10,8.90
2012,02,22,15,11,9.00
2012,02,22,15,12,9.00
2012,02,22,15,13,9.00
2012,02,22,15,14,9.00
2012,02,22,15,15,9.00
2012,02,22,15,16,8.90
2012,02,22,15,17,8.80
2012,02,22,15,18,8.70
2012,02,22,15,19,8.60
2012,02,22,15,20,8.60
2012,02,22,15,21,8.60
2012,02,22,15,22,8.60
2012,02,22,15,23,8.50
2012,02,22,15,24,8.50
2012,02,22,15,25,8.50
2012,02,22,15,26,8.40
2012,02,22,15,27,8.50
2012,02,22,15,28,8.60
2012,02,22,15,29,8.50
2012,02,22,15,30,8.50
2012,02,22,15,31,8.50
2012,02,22,15,32,8.50
2012,02,22,15,33,8.50
2012,02,22,15,34,8.40
2012,02,22,15,35,8.40
2012,02,22,15,36,8.30
2012,02,22,15,37,8.20
2012,02,22,15,38,8.20
2012,02,22,15,39,8.20
2012,02,22,15,40,8.20
2012,02,22,15,41,8.20
2012,02,22,15,42,8.20
2012,02,22,15,43,8.20
2012,02,22,15,44,8.20
2012,02,22,15,45,8.20
2012,02,22,15,46,8.20
2012,02,22,15,47,8.10
2012,02,22,15,48,8.10
2012,02,22,15,49,8.10
2012,02,22,15,50,8.10
2012,02,22,15,51,8.10
2012,02,22,15,52,8.10
2012,02,22,15,53,8.10
2012,02,22,15,54,8.10
2012,02,22,15,55,8.10
2012,02,22,15,56,8.00
2012,02,22,15,57,8.00
2012,02,22,15,58,8.10
2012,02,22,15,59,8.00
2012,02,22,16,00,8.00
2012,02,22,16,01,8.10
2012,02,22,16,02,8.10
2012,02,22,16,03,8.10
2012,02,22,16,04,8.10
2012,02,22,16,05,8.10
2012,02,22,16,06,8.10
2012,02,22,16,07,8.20
2012,02,22,16,08,8.20
2012,02,22,16,09,8.20
2012,02,22,16,10,8.20
2012,02,22,16,11,8.20
2012,02,22,16,12,8.20
2012,02,22,16,13,8.20
2012,02,22,16,14,8.20
2012,02,22,16,15,8.30
2012,02,22,16,16,8.20
2012,02,22,16,17,8.20
2012,02,22,16,18,8.20
2012,02,22,16,19,8.20
2012,02,22,16,20,8.10
2012,02,22,16,21,8.10
2012,02,22,16,22,8.10
2012,02,22,16,23,8.10
2012,02,22,16,24,8.10
2012,02,22,16,25,8.00
2012,02,22,16,26,8.00
2012,02,22,16,27,8.00
2012,02,22,16,28,8.00
2012,02,22,16,29,8.10
2012,02,22,16,30,8.10
2012,02,22,16,31,8.10
2012,02,22,16,32,8.10
2012,02,22,16,33,8.10
2012,02,22,16,34,8.10
2012,02,22,16,35,8.20
2012,02,22,16,36,8.20
2012,02,22,16,37,8.20
2012,02,22,16,38,8.20
2012,02,22,16,39,8.20
2012,02,22,16,40,8.20
2012,02,22,16,41,8.20
2012,02,22,16,42,8.20
2012,02,22,16,43,8.20
2012,02,22,16,44,8.20
2012,02,22,16,45,8.20
2012,02,22,16,46,8.20
2012,02,22,16,47,8.10
2012,02,22,16,48,8.10
2012,02,22,16,49,8.10
2012,02,22,16,50,8.10
2012,02,22,16,51,8.10
2012,02,22,16,52,8.10
2012,02,22,16,53,8.10
2012,02,22,16,54,8.10
2012,02,22,16,55,8.10
2012,02,22,16,56,8.10
2012,02,22,16,57,8.00
2012,02,22,16,58,8.00
2012,02,22,16,59,8.00
2012,02,22,17,00,8.00
2012,02,22,17,01,8.00
2012,02,22,17,02,8.00
2012,02,22,17,03,8.00
2012,02,22,17,04,8.00
2012,02,22,17,05,7.90
2012,02,22,17,06,7.90
2012,02,22,17,07,7.90
2012,02,22,17,08,7.80
2012,02,22,17,09,7.80
2012,02,22,17,10,7.80
2012,02,22,17,11,7.80
2012,02,22,17,12,7.80
2012,02,22,17,13,7.70
2012,02,22,17,14,7.70
2012,02,22,17,15,7.70
2012,02,22,17,16,7.70
2012,02,22,17,17,7.70
2012,02,22,17,18,7.70
2012,02,22,17,19,7.60
2012,02,22,17,20,7.60
2012,02,22,17,21,7.60
2012,02,22,17,22,7.50
2012,02,22,17,23,7.50
2012,02,22,17,24,7.50
2012,02,22,17,25,7.40
2012,02,22,17,26,7.40
2012,02,22,17,27,7.40
2012,02,22,17,28,7.40
2012,02,22,17,29,7.40
2012,02,22,17,30,7.40
2012,02,22,17,31,7.30
2012,02,22,17,32,7.30
2012,02,22,17,33,7.30
2012,02,22,17,34,7.30
2012,02,22,17,35,7.30
2012,02,22,17,36,7.30
2012,02,22,17,37,7.30
2012,02,22,17,38,7.30
2012,02,22,17,39,7.30
2012,02,22,17,40,7.30
2012,02,22,17,41,7.30
2012,02,22,17,42,7.30
2012,02,22,17,43,7.30
2012,02,22,17,44,7.20
2012,02,22,17,45,7.20
2012,02,22,17,46,7.20
2012,02,22,17,47,7.20
2012,02,22,17,48,7.20
2012,02,22,17,49,7.20
2012,02,22,17,50,7.10
2012,02,22,17,51,7.10
2012,02,22,17,52,7.10
2012,02,22,17,53,7.10
2012,02,22,17,54,7.10
2012,02,22,17,55,7.10
2012,02,22,17,56,7.10
2012,02,22,17,57,7.10
2012,02,22,17,58,7.10
2012,02,22,17,59,7.10
2012,02,22,18,00,7.10
2012,02,22,18,01,7.10
2012,02,22,18,02,7.10
2012,02,22,18,03,7.10
2012,02,22,18,04,7.10
2012,02,22,18,05,7.00
2012,02,22,18,06,7.10
2012,02,22,18,07,7.00
2012,02,22,18,08,7.00
2012,02,22,18,09,7.00
2012,02,22,18,10,7.00
2012,02,22,18,11,7.00
2012,02,22,18,12,7.00
2012,02,22,18,13,7.00
2012,02,22,18,14,7.00
2012,02,22,18,15,6.90
2012,02,22,18,16,6.90
2012,02,22,18,17,6.90
2012,02,22,18,18,6.90
2012,02,22,18,19,6.90
2012,02,22,18,20,6.90
2012,02,22,18,21,6.90
2012,02,22,18,22,6.80
2012,02,22,18,23,6.80
2012,02,22,18,24,6.80
2012,02,22,18,25,6.80
2012,02,22,18,26,6.80
2012,02,22,18,27,6.80
2012,02,22,18,28,6.80
2012,02,22,18,29,6.80
2012,02,22,18,30,6.80
2012,02,22,18,31,6.80
2012,02,22,18,32,6.80
2012,02,22,18,33,6.80
2012,02,22,18,34,6.80
2012,02,22,18,35,6.80
2012,02,22,18,36,6.80
2012,02,22,18,37,6.80
2012,02,22,18,38,6.70
2012,02,22,18,39,6.70
2012,02,22,18,40,6.70
2012,02,22,18,41,6.70
2012,02,22,18,42,6.70
2012,02,22,18,43,6.70
2012,02,22,18,44,6.70
2012,02,22,18,45,6.70
2012,02,22,18,46,6.70
2012,02,22,18,47,6.70
2012,02,22,18,48,6.70
2012,02,22,18,49,6.70
2012,02,22,18,50,6.70
2012,02,22,18,51,6.70
2012,02,22,18,52,6.70
2012,02,22,18,53,6.70
2012,02,22,18,54,6.70
2012,02,22,18,55,6.70
2012,02,22,18,56,6.70
2012,02,22,18,57,6.60
2012,02,22,18,58,6.60
2012,02,22,18,59,6.60
2012,02,22,19,00,6.60
2012,02,22,19,01,6.60
2012,02,22,19,02,6.60
2012,02,22,19,03,6.60
2012,02,22,19,04,6.60
2012,02,22,19,05,6.60
2012,02,22,19,06,6.60
2012,02,22,19,07,6.60
2012,02,22,19,08,6.60
2012,02,22,19,09,6.60
2012,02,22,19,10,6.50
2012,02,22,19,11,6.50
2012,02,22,19,12,6.60
2012,02,22,19,13,6.60
2012,02,22,19,14,6.50
2012,02,22,19,15,6.40
2012,02,22,19,16,6.40
2012,02,22,19,17,6.40
2012,02,22,19,18,6.40
2012,02,22,19,19,6.40
2012,02,22,19,20,6.40
2012,02,22,19,21,6.40
2012,02,22,19,22,6.40
2012,02,22,19,23,6.40
2012,02,22,19,24,6.40
2012,02,22,19,25,6.40
2012,02,22,19,26,6.40
2012,02,22,19,27,6.40
2012,02,22,19,28,6.40
2012,02,22,19,29,6.40
2012,02,22,19,30,6.40
2012,02,22,19,31,6.40
2012,02,22,19,32,6.40
2012,02,22,19,33,6.40
2012,02,22,19,34,6.40
2012,02,22,19,35,6.40
2012,02,22,19,36,6.30
2012,02,22,19,37,6.30
2012,02,22,19,38,6.30
2012,02,22,19,39,6.30
2012,02,22,19,40,6.30
2012,02,22,19,41,6.30
2012,02,22,19,42,6.30
2012,02,22,19,43,6.30
2012,02,22,19,44,6.30
2012,02,22,19,45,6.30
2012,02,22,19,46,6.30
2012,02,22,19,47,6.30
2012,02,22,19,48,6.30
2012,02,22,19,49,6.30
2012,02,22,19,50,6.30
2012,02,22,19,51,6.30
2012,02,22,19,52,6.20
2012,02,22,19,53,6.20
2012,02,22,19,54,6.20
2012,02,22,19,55,6.20
2012,02,22,19,56,6.20
2012,02,22,19,57,6.20
2012,02,22,19,58,6.20
2012,02,22,19,59,6.20
2012,02,22,20,00,6.20
2012,02,22,20,01,6.20
2012,02,22,20,02,6.20
2012,02,22,20,03,6.20
2012,02,22,20,04,6.20
2012,02,22,20,05,6.20
2012,02,22,20,06,6.20
2012,02,22,20,07,6.20
2012,02,22,20,08,6.20
2012,02,22,20,09,6.20
2012,02,22,20,10,6.20
2012,02,22,20,11,6.20
2012,02,22,20,12,6.20
2012,02,22,20,13,6.20
2012,02,22,20,14,6.20
2012,02,22,20,15,6.20
2012,02,22,20,16,6.20
2012,02,22,20,17,6.20
2012,02,22,20,18,6.20
2012,02,22,20,19,6.20
2012,02,22,20,20,6.20
2012,02,22,20,21,6.20